Regional Weather Roundup
Issued by NWS

Home | Current Version | Previous Version | Text Only | Print | Product List | Glossary Off
Versions: 1 2 3 4 5 6 7 8 9 10 11 12 13 14 15 16 17 18 19 20 21 22 23 24 25 26 27 28 29 30 31 32 33 34 35 36 37 38 39 40 41 42 43 44 45 46 47 48 49 50

000
ASUS45 KABQ 221210
RWRNM
WEATHER ROUNDUP FOR NEW MEXICO
NATIONAL WEATHER SERVICE ALBUQUERQUE NM
600 AM MDT FRI AUG 22 2014

NOTE: "FAIR" MEANS FEW OR NO CLOUDS BELOW 12,000 FEET AGL WITH NO
       SIGNIFICANT WEATHER OR OBSTRUCTIONS TO VISION.

      THIS PRODUCT IS RELEASED AS TWO VERSIONS.  ONE VERSION NEAR
      THE TOP OF THE HOUR CONTAINING PRELIMINARY DATA FROM ALBUQUERQUE
      AND OTHER STATIONS.  A FINAL VERSION WITH ADDITIONAL DATA IS
      ISSUED ABOUT 10 MINUTES AFTER THE HOUR.

NMZ501-503-504-510>518-221300-
NORTHWEST PLATEAU/NORTHCENTRAL MOUNTAINS

CITY           SKY/WX    TMP DP  RH WIND       PRES   REMARKS
FARMINGTON     LGT RAIN  59  56  89 SE3       30.18R
6HR MIN TEMP:  58; 6HR MAX TEMP:  70; 6HR PCP:  0.04;

LOS ALAMOS     CLOUDY    62  39  42 S3        30.26R
SANTA FE       LGT RAIN  63  45  51 NE7       30.18F
6HR MIN TEMP:  61; 6HR MAX TEMP:  67; 6HR PCP: TRACE;

TAOS           CLOUDY    57  36  44 CALM      30.25S
ANGEL FIRE     FAIR      47  41  79 CALM      30.35R

$$
NMZ402-403-502-505>509-221300-
WESTCENTRAL MOUNTAINS/SOUTHWEST MOUNTAINS

CITY           SKY/WX    TMP DP  RH WIND       PRES   REMARKS
GALLUP         MOCLDY    54  53  97 CALM      30.24F
6HR MIN TEMP:  54; 6HR MAX TEMP:  57; 6HR PCP:  0.04;

SILVER CITY    CLOUDY    66  50  55 E5        30.20R

$$
NMZ407-409-411-412-221300-
SOUTHERN DESERTS

CITY           SKY/WX    TMP DP  RH WIND       PRES   REMARKS
LORDSBURG      PTSUNNY   68  54  60 CALM      30.12S
DEMING         CLOUDY    68  58  70 SE5       30.13R
6HR MIN TEMP:  68; 6HR MAX TEMP:  76; 6HR PCP: TRACE;

LAS CRUCES     CLOUDY    63  62  95 S7        30.19R
HOLLOMAN AFB   MOCLDY    66  66 100 S8        30.16R
ALAMOGORDO     LGT RAIN  64  64 100 S6        30.18S
T OR C         LGT RAIN  65  60  84 S14       30.16R
6HR MIN TEMP:  65; 6HR MAX TEMP:  77; 6HR PCP:  0.03;


$$
NMZ519>523-221300-
CENTRAL VALLEYS/CENTRAL HIGHLANDS

CITY           SKY/WX    TMP DP  RH WIND       PRES   REMARKS
ALBUQUERQUE    CLOUDY    70  47  43 W12       30.15S
6HR MIN TEMP:  70; 6HR MAX TEMP:  75;

DOUBLE EAGLE   CLEAR     66  46  48 NW9       30.19R
MORIARTY ARPT  CLOUDY    57  49  75 CALM      30.20S
6HR MIN TEMP:  54; 6HR MAX TEMP:  66;

CLINES CORNERS CLOUDY    63  46  54 SW12      30.23R
6HR MIN TEMP:  61; 6HR MAX TEMP:  65;

BELEN          RAIN      67  51  55 W8        30.17R
6HR MIN TEMP:  66; 6HR MAX TEMP:  70;

SOCORRO        LGT RAIN  64  58  81 SE8       30.17R
6HR MIN TEMP:  64; 6HR MAX TEMP:  75; 6HR PCP:  0.01;


$$
NMZ524>526-539-540-221300-
SOUTHCENTRAL MOUNTAINS

CITY           SKY/WX    TMP DP  RH WIND       PRES   REMARKS
RUIDOSO        CLOUDY    63  54  72 SW17      30.28R

$$
NMZ527>531-221300-
NORTHEAST HIGHLANDS/NORTHEAST PLAINS

CITY           SKY/WX    TMP DP  RH WIND       PRES   REMARKS
LAS VEGAS      MOCLDY    58  43  57 SE5       30.21S
6HR MIN TEMP:  57; 6HR MAX TEMP:  63;

RATON          CLOUDY    58  44  60 N8        30.17R
6HR MIN TEMP:  56; 6HR MAX TEMP:  63;

CLAYTON        CLEAR     66  48  52 W8        30.08R
6HR MIN TEMP:  64; 6HR MAX TEMP:  71;


$$
NMZ532>537-221300-
EASTCENTRAL PLAINS

CITY           SKY/WX    TMP DP  RH WIND       PRES   REMARKS
TUCUMCARI      MOCLDY    75  57  53 S7        30.03R
6HR MIN TEMP:  74; 6HR MAX TEMP:  80; 6HR PCP: TRACE;

CANNON AFB     PTCLDY    70  62  75 S9        30.09S
6HR MIN TEMP:  69; 6HR MAX TEMP:  78;

CLOVIS AIRPORT   N/A     68  61  77 S7        30.11S

$$
NMZ028-029-538-221300-
SOUTHEAST PLAINS

CITY           SKY/WX    TMP DP  RH WIND       PRES   REMARKS
ROSWELL        PTCLDY    73  59  61 SW9       30.03F
6HR MIN TEMP:  72; 6HR MAX TEMP:  82;

ARTESIA        PTCLDY    75  59  57 W18G25    30.05R
CARLSBAD       MOCLDY    77  59  53 SW13      30.04R
6HR MIN TEMP:  75; 6HR MAX TEMP:  81;

HOBBS          CLEAR     72  63  73 S8        30.09


$$


USA.gov is the U.S. government's official web portal to all federal, state and local government web resources and services.